SR1WXW Weather Reports


time (UTC)temp
C
wind
direction
speed
KPH
gust
KPH
rain 1hr
cm
rain 24hr
cm
rain mn
cm
humidity
%
barometer
mb
20210618214053 22 135 0.0 0.0 0.00 0.00 0.00 50 1009.6
20210618213553 22 112 0.0 0.0 0.00 0.00 0.00 50 1009.5
20210618213053 22 135 0.0 0.0 0.00 0.00 0.00 49 1009.6
20210618212553 22 112 0.0 0.0 0.00 0.00 0.00 49 1009.6
20210618212053 22 112 0.0 0.0 0.00 0.00 0.00 49 1009.7
20210618211553 22 135 0.0 0.0 0.00 0.00 0.00 49 1009.7
20210618211053 22 157 0.0 0.0 0.00 0.00 0.00 49 1009.6
20210618210553 22 135 0.0 0.0 0.00 0.00 0.00 49 1009.6
20210618210053 23 90 0.0 0.0 0.00 0.00 0.00 49 1009.6
20210618205553 23 135 0.0 0.0 0.00 0.00 0.00 49 1009.5
20210618205053 23 135 0.0 0.0 0.00 0.00 0.00 49 1009.4
20210618204553 23 135 0.0 0.0 0.00 0.00 0.00 49 1009.4
20210618204053 23 112 0.0 0.0 0.00 0.00 0.00 48 1009.4
20210618203553 23 112 0.0 0.0 0.00 0.00 0.00 48 1009.5
20210618203053 23 157 0.0 0.0 0.00 0.00 0.00 48 1009.5
20210618202553 23 112 0.0 0.0 0.00 0.00 0.00 47 1009.2
20210618202053 23 90 0.0 0.0 0.00 0.00 0.00 47 1009.3
20210618201553 23 112 0.0 0.0 0.00 0.00 0.00 47 1009.2
20210618201053 23 112 0.0 0.0 0.00 0.00 0.00 47 1009.4
20210618200553 24 135 0.0 0.0 0.00 0.00 0.00 46 1009.2
20210618200053 24 135 0.0 0.0 0.00 0.00 0.00 46 1009.3
20210618195553 24 112 0.0 0.0 0.00 0.00 0.00 46 1009.2
20210618195053 25 112 0.0 0.0 0.00 0.00 0.00 45 1009.3
20210618194553 25 90 0.0 0.0 0.00 0.00 0.00 45 1009.2
20210618194053 25 67 0.0 0.0 0.00 0.00 0.00 45 1009.3
20210618193553 25 135 0.0 0.0 0.00 0.00 0.00 45 1009.2
20210618193053 25 112 0.0 0.0 0.00 0.00 0.00 44 1009.2
20210618192553 25 112 0.0 0.0 0.00 0.00 0.00 44 1009.3
20210618192053 25 135 0.0 1.6 0.00 0.00 0.00 44 1009.1
20210618191553 25 112 0.0 0.0 0.00 0.00 0.00 44 1009.1
20210618191053 26 90 0.0 0.0 0.00 0.00 0.00 44 1009.1
20210618190553 26 135 0.0 0.0 0.00 0.00 0.00 44 1009.0
20210618190053 26 135 0.0 0.0 0.00 0.00 0.00 43 1009.0
20210618185553 26 90 0.0 1.6 0.00 0.00 0.00 43 1009.2
20210618185053 26 112 0.0 1.6 0.00 0.00 0.00 43 1009.2
20210618184553 26 90 0.0 0.0 0.00 0.00 0.00 43 1009.2
20210618184053 26 112 0.0 3.2 0.00 0.00 0.00 43 1009.1
20210618183553 27 112 0.0 3.2 0.00 0.00 0.00 43 1009.1
20210618183053 27 90 3.2 3.2 0.00 0.00 0.00 42 1009.1
20210618182553 27 67 0.0 3.2 0.00 0.00 0.00 42 1009.1
20210618182054 27 112 0.0 3.2 0.00 0.00 0.00 42 1009.1
20210618181553 27 112 0.0 6.4 0.00 0.00 0.00 42 1009.1
20210618181053 27 180 1.6 4.8 0.00 0.00 0.00 42 1009.1
20210618180554 27 90 0.0 3.2 0.00 0.00 0.00 42 1009.0
20210618180054 27 112 3.2 4.8 0.00 0.00 0.00 41 1008.8
20210618175554 27 112 0.0 4.8 0.00 0.00 0.00 41 1009.0
20210618175054 28 112 0.0 3.2 0.00 0.00 0.00 41 1009.0
20210618174554 28 112 0.0 6.4 0.00 0.00 0.00 41 1009.0
20210618174054 28 135 0.0 4.8 0.00 0.00 0.00 41 1009.1
20210618173554 28 67 0.0 3.2 0.00 0.00 0.00 41 1008.8
20210618173054 28 112 3.2 3.2 0.00 0.00 0.00 41 1008.9
20210618172554 28 157 0.0 6.4 0.00 0.00 0.00 41 1009.0
20210618172054 28 112 3.2 4.8 0.00 0.00 0.00 41 1009.0
20210618171554 28 112 0.0 3.2 0.00 0.00 0.00 40 1009.2
20210618171054 28 135 0.0 3.2 0.00 0.00 0.00 40 1009.0
20210618170554 29 67 0.0 4.8 0.00 0.00 0.00 40 1009.1
20210618170054 29 135 0.0 9.7 0.00 0.00 0.00 39 1009.1
20210618165554 29 135 0.0 4.8 0.00 0.00 0.00 40 1009.0
20210618165054 29 135 0.0 3.2 0.00 0.00 0.00 39 1009.0
20210618164554 30 45 0.0 3.2 0.00 0.00 0.00 39 1009.1
20210618164054 30 112 0.0 0.0 0.00 0.00 0.00 39 1009.1
20210618163554 30 90 0.0 1.6 0.00 0.00 0.00 39 1009.0
20210618163054 30 135 0.0 3.2 0.00 0.00 0.00 38 1009.1
20210618162554 30 135 0.0 1.6 0.00 0.00 0.00 38 1009.1
20210618162054 30 135 0.0 3.2 0.00 0.00 0.00 38 1009.2
20210618161554 30 112 0.0 4.8 0.00 0.00 0.00 38 1009.2
20210618161054 30 135 0.0 4.8 0.00 0.00 0.00 38 1009.2
20210618160554 30 135 0.0 6.4 0.00 0.00 0.00 37 1009.2
20210618160054 30 157 0.0 9.7 0.00 0.00 0.00 37 1009.2
20210618155554 30 135 1.6 4.8 0.00 0.00 0.00 37 1009.2
20210618155054 30 112 0.0 0.0 0.00 0.00 0.00 37 1009.2
20210618154554 30 112 0.0 0.0 0.00 0.00 0.00 37 1009.3
20210618154054 30 112 0.0 4.8 0.00 0.00 0.00 37 1009.2
20210618153554 30 157 0.0 3.2 0.00 0.00 0.00 37 1009.4
20210618153054 30 135 0.0 3.2 0.00 0.00 0.00 37 1009.5
20210618152554 30 157 0.0 1.6 0.00 0.00 0.00 37 1009.5
20210618152054 30 112 0.0 4.8 0.00 0.00 0.00 37 1009.6
20210618151554 30 135 0.0 3.2 0.00 0.00 0.00 36 1009.6
20210618151054 31 22 0.0 8.0 0.00 0.00 0.00 37 1009.6
20210618150554 31 90 1.6 6.4 0.00 0.00 0.00 37 1009.5
20210618150054 31 135 0.0 8.0 0.00 0.00 0.00 37 1009.5
20210618145554 31 67 0.0 3.2 0.00 0.00 0.00 37 1009.4
20210618145054 31 135 0.0 3.2 0.00 0.00 0.00 37 1009.6
20210618144554 31 135 0.0 8.0 0.00 0.00 0.00 37 1009.6
20210618144054 31 157 0.0 3.2 0.00 0.00 0.00 37 1009.6
20210618143554 31 112 0.0 4.8 0.00 0.00 0.00 37 1009.6
20210618143054 31 112 0.0 4.8 0.00 0.00 0.00 37 1009.7
20210618142554 31 112 0.0 3.2 0.00 0.00 0.00 37 1009.7
20210618142054 31 135 0.0 4.8 0.00 0.00 0.00 37 1009.7
20210618141554 31 135 0.0 8.0 0.00 0.00 0.00 36 1009.7
20210618141054 31 112 1.6 4.8 0.00 0.00 0.00 36 1009.8
20210618140554 31 135 0.0 4.8 0.00 0.00 0.00 36 1009.8
20210618140054 31 112 0.0 12.9 0.00 0.00 0.00 36 1009.9
20210618135554 31 112 0.0 12.9 0.00 0.00 0.00 37 1009.9
20210618135054 31 112 0.0 4.8 0.00 0.00 0.00 37 1010.0
20210618134554 31 90 1.6 1.6 0.00 0.00 0.00 37 1010.1
20210618134054 31 67 0.0 6.4 0.00 0.00 0.00 37 1010.0
20210618133554 31 67 0.0 3.2 0.00 0.00 0.00 38 1010.0
20210618133054 31 90 0.0 3.2 0.00 0.00 0.00 38 1010.0
20210618132554 31 157 0.0 8.0 0.00 0.00 0.00 37 1010.0
20210618132054 31 45 6.4 6.4 0.00 0.00 0.00 37 1009.9
20210618131554 31 112 4.8 4.8 0.00 0.00 0.00 37 1010.0
20210618131054 31 112 0.0 3.2 0.00 0.00 0.00 37 1010.1
20210618130554 31 112 0.0 4.8 0.00 0.00 0.00 37 1010.1
20210618130054 31 67 1.6 8.0 0.00 0.00 0.00 37 1010.1
20210618125554 31 90 0.0 3.2 0.00 0.00 0.00 37 1010.1
20210618125054 31 157 0.0 1.6 0.00 0.00 0.00 38 1010.2
20210618124554 31 112 0.0 11.3 0.00 0.00 0.00 37 1010.3
20210618124054 31 112 0.0 3.2 0.00 0.00 0.00 38 1010.3
20210618123554 31 135 0.0 4.8 0.00 0.00 0.00 38 1010.3
20210618123054 31 67 0.0 4.8 0.00 0.00 0.00 38 1010.2
20210618122554 31 90 0.0 3.2 0.00 0.00 0.00 38 1010.4
20210618122054 31 135 0.0 6.4 0.00 0.00 0.00 38 1010.5
20210618121554 30 90 0.0 4.8 0.00 0.00 0.00 38 1010.5
20210618121054 30 202 0.0 4.8 0.00 0.00 0.00 38 1010.5
20210618120554 31 67 1.6 4.8 0.00 0.00 0.00 38 1010.5
20210618120054 31 112 3.2 3.2 0.00 0.00 0.00 38 1010.6
20210618115554 31 90 3.2 6.4 0.00 0.00 0.00 38 1010.6
20210618115054 31 90 1.6 3.2 0.00 0.00 0.00 38 1010.6
20210618114554 31 45 0.0 4.8 0.00 0.00 0.00 38 1010.6
20210618114054 31 90 1.6 3.2 0.00 0.00 0.00 39 1010.7
20210618113554 31 135 0.0 3.2 0.00 0.00 0.00 38 1010.7
20210618113054 31 112 1.6 6.4 0.00 0.00 0.00 38 1010.6
20210618112554 31 45 4.8 9.7 0.00 0.00 0.00 38 1010.5
20210618112054 31 112 6.4 6.4 0.00 0.00 0.00 38 1010.6
20210618111554 31 90 0.0 8.0 0.00 0.00 0.00 39 1010.7
20210618111054 31 45 1.6 3.2 0.00 0.00 0.00 38 1010.7
20210618110555 31 67 3.2 4.8 0.00 0.00 0.00 39 1010.7
20210618110055 30 292 0.0 3.2 0.00 0.00 0.00 40 1010.8
20210618105555 30 135 0.0 6.4 0.00 0.00 0.00 40 1010.9
20210618105055 30 112 3.2 6.4 0.00 0.00 0.00 38 1010.8
20210618104555 31 135 0.0 11.3 0.00 0.00 0.00 38 1010.9
20210618104055 31 180 0.0 11.3 0.00 0.00 0.00 37 1010.9
20210618103555 31 135 0.0 4.8 0.00 0.00 0.00 38 1010.9
20210618103055 31 135 0.0 4.8 0.00 0.00 0.00 38 1011.0
20210618102555 31 135 0.0 1.6 0.00 0.00 0.00 38 1011.1
20210618102055 31 135 0.0 1.6 0.00 0.00 0.00 39 1011.1
20210618101555 31 90 0.0 1.6 0.00 0.00 0.00 37 1011.1
20210618101055 32 157 0.0 3.2 0.00 0.00 0.00 36 1011.1
20210618100555 32 135 0.0 8.0 0.00 0.00 0.00 35 1011.2
20210618100055 33 180 0.0 3.2 0.00 0.00 0.00 34 1011.2
20210618095555 35 180 0.0 3.2 0.00 0.00 0.00 32 1011.3
20210618095055 36 225 0.0 1.6 0.00 0.00 0.00 31 1011.4
20210618094555 37 135 0.0 1.6 0.00 0.00 0.00 30 1011.1
20210618094055 38 135 0.0 8.0 0.00 0.00 0.00 30 1011.3
20210618093555 38 135 1.6 3.2 0.00 0.00 0.00 30 1011.2
20210618093055 38 112 0.0 0.0 0.00 0.00 0.00 29 1011.2
20210618092555 38 135 0.0 1.6 0.00 0.00 0.00 30 1011.2
20210618092055 38 157 0.0 0.0 0.00 0.00 0.00 30 1011.2
20210618091555 38 180 0.0 4.8 0.00 0.00 0.00 30 1011.2
20210618091055 38 157 0.0 3.2 0.00 0.00 0.00 30 1011.3
20210618090555 38 202 0.0 1.6 0.00 0.00 0.00 30 1011.2
20210618090055 38 135 0.0 1.6 0.00 0.00 0.00 30 1011.2
20210618085555 38 135 1.6 9.7 0.00 0.00 0.00 30 1011.2
20210618085055 38 180 0.0 6.4 0.00 0.00 0.00 31 1011.3
20210618084555 38 135 0.0 0.0 0.00 0.00 0.00 31 1011.4
20210618084055 38 180 0.0 9.7 0.00 0.00 0.00 31 1011.3
20210618083555 37 135 0.0 1.6 0.00 0.00 0.00 32 1011.4
20210618083055 37 202 0.0 6.4 0.00 0.00 0.00 33 1011.4
20210618082555 36 135 0.0 1.6 0.00 0.00 0.00 33 1011.4
20210618082055 36 135 0.0 4.8 0.00 0.00 0.00 34 1011.5
20210618081555 36 247 0.0 3.2 0.00 0.00 0.00 34 1011.5
20210618081055 36 112 0.0 3.2 0.00 0.00 0.00 35 1011.6
20210618080555 35 135 0.0 4.8 0.00 0.00 0.00 36 1011.6
20210618080055 35 270 0.0 4.8 0.00 0.00 0.00 36 1011.6
20210618075555 35 135 3.2 4.8 0.00 0.00 0.00 37 1011.7
20210618075055 34 157 1.6 1.6 0.00 0.00 0.00 38 1011.6
20210618074555 33 112 0.0 3.2 0.00 0.00 0.00 38 1011.6
20210618074055 33 135 0.0 1.6 0.00 0.00 0.00 39 1011.6
20210618073555 33 180 0.0 4.8 0.00 0.00 0.00 39 1011.7
20210618073055 33 112 1.6 3.2 0.00 0.00 0.00 40 1011.7
20210618072555 33 67 0.0 1.6 0.00 0.00 0.00 41 1011.8
20210618072055 32 112 0.0 4.8 0.00 0.00 0.00 41 1011.9
20210618071555 32 112 0.0 0.0 0.00 0.00 0.00 42 1012.0
20210618071055 32 135 0.0 0.0 0.00 0.00 0.00 42 1012.1
20210618070555 32 67 0.0 4.8 0.00 0.00 0.00 43 1011.9
20210618070055 31 180 0.0 4.8 0.00 0.00 0.00 43 1012.0
20210618065555 31 135 0.0 9.7 0.00 0.00 0.00 44 1011.7
20210618065055 31 157 0.0 0.0 0.00 0.00 0.00 45 1011.7
20210618064555 30 135 0.0 1.6 0.00 0.00 0.00 46 1011.6
20210618064055 30 112 0.0 0.0 0.00 0.00 0.00 48 1011.7
20210618063555 28 157 0.0 0.0 0.00 0.00 0.00 49 1011.6
20210618063055 28 157 0.0 3.2 0.00 0.00 0.00 49 1011.7
20210618062555 27 157 0.0 3.2 0.00 0.00 0.00 49 1011.7
20210618062056 28 157 0.0 0.0 0.00 0.00 0.00 48 1011.7
20210618061555 28 202 0.0 0.0 0.00 0.00 0.00 48 1011.7
20210618061055 28 157 0.0 3.2 0.00 0.00 0.00 48 1011.7
20210618060555 28 157 0.0 4.8 0.00 0.00 0.00 49 1011.8
20210618060055 28 135 3.2 3.2 0.00 0.00 0.00 50 1011.8
20210618055555 28 135 0.0 0.0 0.00 0.00 0.00 50 1011.7
20210618055055 27 135 0.0 1.6 0.00 0.00 0.00 52 1011.7
20210618054555 27 135 0.0 0.0 0.00 0.00 0.00 53 1011.6
20210618054055 27 157 0.0 0.0 0.00 0.00 0.00 54 1011.7
20210618053555 26 135 0.0 0.0 0.00 0.00 0.00 55 1011.6
20210618053055 26 135 0.0 1.6 0.00 0.00 0.00 56 1011.6
20210618052555 25 157 0.0 0.0 0.00 0.00 0.00 57 1011.6
20210618052055 25 180 0.0 0.0 0.00 0.00 0.00 58 1011.6
20210618051555 24 202 0.0 0.0 0.00 0.00 0.00 59 1011.7
20210618051055 23 135 1.6 1.6 0.00 0.00 0.00 60 1011.7
20210618050555 23 135 0.0 0.0 0.00 0.00 0.00 62 1011.7
20210618050055 23 180 0.0 0.0 0.00 0.00 0.00 63 1011.7
20210618045555 22 180 0.0 0.0 0.00 0.00 0.00 64 1011.7
20210618045055 22 135 0.0 1.6 0.00 0.00 0.00 66 1011.8
20210618044555 21 90 1.6 3.2 0.00 0.00 0.00 67 1011.7
20210618044055 21 180 0.0 0.0 0.00 0.00 0.00 69 1011.7
20210618043555 20 112 0.0 3.2 0.00 0.00 0.00 70 1011.7
20210618043055 19 112 1.6 1.6 0.00 0.00 0.00 72 1011.7
20210618042555 18 90 0.0 3.2 0.00 0.00 0.00 72 1011.7
20210618042055 18 112 0.0 4.8 0.00 0.00 0.00 73 1011.7
20210618041555 18 112 0.0 0.0 0.00 0.00 0.00 73 1011.7
20210618041055 18 135 0.0 0.0 0.00 0.00 0.00 73 1011.7
20210618040555 18 90 0.0 0.0 0.00 0.00 0.00 73 1011.7
20210618040055 18 112 0.0 0.0 0.00 0.00 0.00 73 1011.8
20210618035555 18 112 0.0 0.0 0.00 0.00 0.00 73 1011.7
20210618035055 18 135 0.0 0.0 0.00 0.00 0.00 73 1011.8
20210618034556 18 135 0.0 0.0 0.00 0.00 0.00 73 1011.7
20210618034055 18 45 0.0 0.0 0.00 0.00 0.00 73 1011.7
20210618033556 18 135 0.0 0.0 0.00 0.00 0.00 73 1011.7
20210618033056 18 112 0.0 0.0 0.00 0.00 0.00 73 1011.7
20210618032556 17 135 0.0 0.0 0.00 0.00 0.00 73 1011.6
20210618032056 17 112 0.0 0.0 0.00 0.00 0.00 73 1011.6
20210618031556 17 112 0.0 0.0 0.00 0.00 0.00 73 1011.7
20210618031056 17 112 0.0 0.0 0.00 0.00 0.00 72 1011.6
20210618030556 17 112 0.0 0.0 0.00 0.00 0.00 72 1011.5
20210618030056 17 135 0.0 0.0 0.00 0.00 0.00 72 1011.6
20210618025556 17 112 0.0 0.0 0.00 0.00 0.00 72 1011.6
20210618025056 18 135 0.0 0.0 0.00 0.00 0.00 72 1011.5
20210618024556 18 90 0.0 0.0 0.00 0.00 0.00 72 1011.4
20210618024056 18 112 0.0 0.0 0.00 0.00 0.00 72 1011.5
20210618023556 18 112 0.0 0.0 0.00 0.00 0.00 72 1011.4
20210618023056 18 135 0.0 0.0 0.00 0.00 0.00 72 1011.3
20210618022556 18 135 0.0 0.0 0.00 0.00 0.00 71 1011.2
20210618022056 18 112 0.0 0.0 0.00 0.00 0.00 71 1011.3
20210618021556 18 112 0.0 0.0 0.00 0.00 0.00 71 1011.3
20210618021056 18 112 0.0 0.0 0.00 0.00 0.00 71 1011.3
20210618020556 18 112 0.0 0.0 0.00 0.00 0.00 71 1011.3
20210618020056 18 135 0.0 0.0 0.00 0.00 0.00 71 1011.3
20210618015556 18 90 0.0 0.0 0.00 0.00 0.00 71 1011.3
20210618015056 18 135 0.0 0.0 0.00 0.00 0.00 71 1011.4
20210618014556 18 112 0.0 0.0 0.00 0.00 0.00 71 1011.4
20210618014056 18 67 0.0 0.0 0.00 0.00 0.00 71 1011.4
20210618013556 18 112 0.0 0.0 0.00 0.00 0.00 70 1011.3
20210618013056 18 112 0.0 0.0 0.00 0.00 0.00 70 1011.4
20210618012556 18 135 0.0 0.0 0.00 0.00 0.00 70 1011.6
20210618012056 18 135 0.0 0.0 0.00 0.00 0.00 70 1011.6
20210618011556 18 135 0.0 0.0 0.00 0.00 0.00 69 1011.5
20210618011056 18 135 0.0 0.0 0.00 0.00 0.00 69 1011.6
20210618010556 18 135 0.0 0.0 0.00 0.00 0.00 69 1011.6
20210618010056 19 135 0.0 0.0 0.00 0.00 0.00 69 1011.6
20210618005556 19 135 0.0 0.0 0.00 0.00 0.00 69 1011.6
20210618005056 19 135 0.0 0.0 0.00 0.00 0.00 69 1011.7
20210618004556 19 157 0.0 0.0 0.00 0.00 0.00 69 1011.7
20210618004056 19 135 0.0 0.0 0.00 0.00 0.00 69 1011.7
20210618003556 19 157 0.0 0.0 0.00 0.00 0.00 69 1011.7
20210618003056 19 90 0.0 0.0 0.00 0.00 0.00 69 1011.8
20210618002556 19 112 0.0 0.0 0.00 0.00 0.00 69 1011.8
20210618002056 19 112 0.0 0.0 0.00 0.00 0.00 69 1011.8
20210618001556 20 135 0.0 0.0 0.00 0.00 0.00 69 1011.9
20210618001056 20 135 0.0 0.0 0.00 0.00 0.00 68 1012.0
20210618000556 20 135 0.0 0.0 0.00 0.00 0.00 68 1012.1
20210618000056 20 112 0.0 0.0 0.00 0.00 0.00 68 1012.1
20210617235556 20 67 0.0 0.0 0.00 0.00 0.00 68 1012.1
20210617235056 20 90 0.0 0.0 0.00 0.00 0.00 68 1012.1
20210617234556 20 112 0.0 0.0 0.00 0.00 0.00 68 1012.1
20210617234056 20 135 0.0 0.0 0.00 0.00 0.00 68 1012.1
20210617233556 20 112 0.0 0.0 0.00 0.00 0.00 68 1011.9
20210617233056 20 67 0.0 0.0 0.00 0.00 0.00 67 1012.0
20210617232556 20 135 0.0 0.0 0.00 0.00 0.00 67 1012.1
20210617232056 20 90 0.0 0.0 0.00 0.00 0.00 67 1012.2
20210617231556 20 135 0.0 0.0 0.00 0.00 0.00 67 1012.2
20210617231056 20 112 0.0 0.0 0.00 0.00 0.00 67 1012.2
20210617230556 20 135 0.0 0.0 0.00 0.00 0.00 67 1012.1
20210617230056 20 135 0.0 0.0 0.00 0.00 0.00 66 1012.1
20210617225556 20 112 0.0 0.0 0.00 0.00 0.00 66 1012.2
20210617225056 20 112 0.0 0.0 0.00 0.00 0.00 66 1012.2
20210617224556 21 135 0.0 0.0 0.00 0.00 0.00 66 1012.2
20210617224056 21 135 0.0 0.0 0.00 0.00 0.00 66 1012.2
20210617223556 21 135 0.0 0.0 0.00 0.00 0.00 66 1012.2
20210617223056 21 157 0.0 4.8 0.00 0.00 0.00 66 1012.2
20210617222556 21 90 0.0 0.0 0.00 0.00 0.00 66 1012.1
20210617222056 21 135 0.0 3.2 0.00 0.00 0.00 66 1012.1
20210617221556 21 135 0.0 3.2 0.00 0.00 0.00 65 1012.2
20210617221056 21 112 0.0 3.2 0.00 0.00 0.00 65 1012.2
20210617220556 21 135 0.0 0.0 0.00 0.00 0.00 65 1012.2
20210617220056 21 157 0.0 1.6 0.00 0.00 0.00 64 1012.3
20210617215556 21 90 0.0 0.0 0.00 0.00 0.00 64 1012.3
20210617215056 21 112 0.0 1.6 0.00 0.00 0.00 64 1012.4
20210617214556 21 22 0.0 0.0 0.00 0.00 0.00 64 1012.3